GW7420 Weather Reports


Display with metric or nautical units.
time (UTC)temp
F
wind
direction
speed
MPH
gust
MPH
rain 1hr
in
rain 24hr
in
rain mn
in
humidity
%
barometer
mb
20260906124757 73 313 1.0 1.0 0.00 0.62 0.02 92 30.0
20260906124257 73 294 0.0 2.0 0.00 0.62 0.02 94 30.0
20260906123757 73 317 0.0 1.0 0.00 0.62 0.02 95 30.0
20260906123256 73 360 0.0 0.0 0.00 0.62 0.02 96 30.0
20260906122758 72 360 0.0 0.0 0.00 0.62 0.02 96 30.0
20260906122257 72 360 0.0 0.0 0.00 0.62 0.02 96 30.0
20260906121757 72 56 0.0 0.0 0.00 0.62 0.02 96 30.0
20260906121259 72 309 0.0 1.0 0.00 0.62 0.02 97 30.0
20260906120757 72 360 0.0 0.0 0.00 0.62 0.02 97 30.0
20260906120257 72 296 1.0 1.0 0.00 0.62 0.02 97 30.0
20260906115756 72 360 0.0 0.0 0.00 0.62 0.02 97 30.0
20260906115257 72 285 0.0 1.0 0.00 0.62 0.02 97 30.0
20260906114757 72 360 0.0 0.0 0.00 0.62 0.02 97 30.0
20260906114258 72 360 0.0 0.0 0.00 0.62 0.02 97 30.0
20260906113756 72 360 0.0 0.0 0.00 0.62 0.02 97 30.0
20260906113257 72 360 0.0 0.0 0.00 0.62 0.02 96 30.0
20260906112756 72 360 0.0 0.0 0.00 0.62 0.02 96 30.0
20260906112257 72 360 0.0 0.0 0.00 0.62 0.02 96 30.0
20260906111757 72 360 0.0 0.0 0.00 0.62 0.02 95 30.0
20260906111256 72 360 0.0 0.0 0.00 0.62 0.02 95 30.0
20260906110756 72 292 0.0 0.0 0.00 0.62 0.02 95 30.0
20260906110257 72 301 1.0 2.0 0.00 0.62 0.02 95 30.0
20260906105757 72 5 0.0 2.0 0.00 0.62 0.02 96 30.0
20260906105256 72 280 1.0 2.0 0.00 0.62 0.02 95 30.0
20260906104756 72 360 0.0 0.0 0.00 0.62 0.02 96 29.9
20260906104257 72 360 0.0 0.0 0.00 0.62 0.02 96 29.9
20260906103756 72 308 0.0 1.0 0.00 0.62 0.02 96 29.9
20260906103256 73 360 0.0 0.0 0.00 0.62 0.02 96 29.9
20260906102756 73 360 2.0 2.0 0.00 0.62 0.02 96 29.9
20260906102256 73 360 0.0 0.0 0.01 0.62 0.02 96 29.9
20260906101756 73 360 0.0 0.0 0.02 0.62 0.02 95 29.9
20260906101257 73 329 0.0 1.0 0.02 0.62 0.02 95 29.9
20260906100757 73 360 0.0 0.0 0.02 0.62 0.02 95 29.9
20260906100258 73 3 1.0 2.0 0.02 0.62 0.02 94 29.9
20260906095757 73 360 0.0 0.0 0.02 0.62 0.02 93 29.9
20260906095257 73 356 0.0 1.0 0.02 0.62 0.02 93 29.9
20260906094757 73 296 0.0 1.0 0.02 0.62 0.02 93 29.9
20260906094256 73 360 0.0 0.0 0.02 0.62 0.02 94 29.9
20260906093756 74 241 0.0 2.0 0.02 0.62 0.02 94 29.9
20260906093256 74 298 2.0 4.0 0.02 0.62 0.02 96 29.9
20260906092757 74 4 2.0 3.0 0.00 0.62 0.02 97 29.9
20260906092257 74 360 0.0 0.0 0.00 0.62 0.02 97 29.9
20260906091756 73 90 0.0 0.0 0.00 0.61 0.01 97 29.9
20260906091256 73 162 0.0 0.0 0.00 0.60 0.00 97 29.9
20260906090756 73 113 0.0 1.0 0.00 0.60 0.00 97 29.9
20260906090257 73 360 0.0 0.0 0.00 0.60 0.00 96 29.9
20260906085756 73 360 0.0 0.0 0.00 0.60 0.00 95 29.9
20260906085256 74 360 0.0 0.0 0.00 0.60 0.00 95 29.9
20260906084756 74 81 0.0 0.0 0.00 0.60 0.00 95 29.9
20260906084257 74 360 0.0 0.0 0.00 0.60 0.00 96 29.9
20260906083757 74 360 0.0 0.0 0.00 0.60 0.00 95 29.9
20260906083256 74 360 0.0 0.0 0.00 0.60 0.00 96 29.9
20260906082756 74 360 0.0 0.0 0.00 0.60 0.00 97 30.0
20260906082257 74 169 0.0 2.0 0.00 0.60 0.00 95 30.0
20260906081756 74 231 0.0 2.0 0.00 0.60 0.00 98 30.0
20260906081259 74 130 0.0 2.0 0.00 0.60 0.00 97 30.0
20260906080756 74 257 0.0 0.0 0.00 0.60 0.00 97 30.0
20260906080257 74 299 0.0 1.0 0.00 0.60 0.00 97 30.0
20260906075757 74 360 0.0 0.0 0.00 0.60 0.00 97 30.0
20260906075257 74 295 1.0 2.0 0.00 0.60 0.00 97 30.0
20260906074758 75 360 0.0 0.0 0.00 0.60 0.00 98 30.0
20260906074256 74 288 2.0 4.0 0.00 0.60 0.00 98 30.0
20260906073756 74 360 0.0 0.0 0.00 0.60 0.00 98 30.0
20260906073256 74 300 0.0 2.0 0.00 0.60 0.00 98 30.0
20260906072756 74 295 0.0 0.0 0.00 0.60 0.00 98 30.0
20260906072257 74 360 0.0 0.0 0.00 0.60 0.00 99 30.0
20260906071756 74 360 0.0 0.0 0.00 0.60 0.00 99 30.0
20260906071256 74 360 0.0 0.0 0.00 0.60 0.00 99 30.0
20260906070756 74 360 0.0 0.0 0.00 0.60 0.00 98 30.0
20260906070256 74 360 0.0 0.0 0.00 0.60 0.00 98 30.0
20260906065756 74 360 0.0 0.0 0.00 0.60 0.00 98 30.0
20260906065258 74 360 0.0 0.0 0.00 0.60 0.00 98 30.0
20260906064757 74 360 0.0 0.0 0.00 0.60 0.00 98 30.0
20260906064256 74 360 0.0 0.0 0.00 0.60 0.00 98 30.0
20260906063756 74 360 0.0 0.0 0.00 0.60 0.00 98 30.0
20260906063256 74 360 0.0 0.0 0.00 0.60 0.00 98 30.0
20260906062756 74 360 0.0 0.0 0.00 0.60 0.00 98 30.0
20260906062256 74 145 0.0 1.0 0.00 0.60 0.00 98 30.0
20260906061757 74 360 0.0 0.0 0.00 0.60 0.00 98 30.0
20260906061258 74 360 0.0 0.0 0.00 0.60 0.00 98 30.0
20260906060756 74 360 0.0 0.0 0.00 0.60 0.00 98 30.0
20260906060257 74 360 0.0 0.0 0.00 0.60 0.00 98 30.0
20260906055757 74 360 0.0 0.0 0.00 0.60 0.00 98 29.9
20260906055256 75 360 0.0 0.0 0.00 0.60 0.00 98 29.9
20260906054756 75 360 0.0 0.0 0.00 0.60 0.00 98 29.9
20260906054258 75 360 0.0 0.0 0.00 0.60 0.00 98 29.9
20260906053756 75 360 0.0 0.0 0.00 0.60 0.00 98 29.9
20260906053256 75 360 0.0 0.0 0.00 0.60 0.00 98 29.9
20260906052757 75 360 0.0 0.0 0.00 0.60 0.00 98 29.9
20260906052257 75 360 0.0 0.0 0.00 0.60 0.00 98 29.9
20260906051756 75 360 0.0 0.0 0.00 0.60 0.00 98 29.9
20260906051256 75 360 0.0 0.0 0.00 0.60 0.00 98 29.9
20260906050757 75 360 0.0 0.0 0.00 0.60 0.00 98 29.9
20260906050256 75 360 0.0 0.0 0.00 0.60 0.00 98 29.9
20260906045756 75 360 0.0 0.0 0.00 0.60 0.56 98 29.9
20260906045258 75 360 0.0 0.0 0.00 0.60 0.56 98 29.9
20260906044757 75 360 0.0 0.0 0.00 0.60 0.56 98 30.0
20260906044256 75 275 0.0 0.0 0.00 0.60 0.56 98 30.0
20260906043757 75 360 0.0 0.0 0.00 0.60 0.56 98 30.0
20260906043256 75 97 0.0 1.0 0.00 0.60 0.56 98 30.0
20260906042757 76 360 0.0 0.0 0.00 0.60 0.56 98 30.0
20260906042256 76 360 0.0 0.0 0.00 0.60 0.56 98 30.0
20260906041756 76 360 0.0 0.0 0.00 0.60 0.56 98 30.0
20260906041256 76 360 0.0 0.0 0.00 0.60 0.56 98 30.0
20260906040758 76 360 0.0 0.0 0.00 0.60 0.56 98 30.0
20260906040256 76 360 0.0 1.0 0.00 0.60 0.56 99 30.0
20260906035756 75 360 0.0 0.0 0.00 0.60 0.56 98 30.0
20260906035256 75 360 0.0 0.0 0.00 0.60 0.56 98 30.0
20260906034756 75 360 0.0 0.0 0.00 0.60 0.56 98 30.0
20260906034257 75 360 0.0 0.0 0.00 0.60 0.56 98 30.0
20260906033757 75 360 0.0 0.0 0.00 0.60 0.56 98 30.0
20260906033256 75 68 0.0 0.0 0.00 0.60 0.56 98 30.0
20260906032756 75 360 0.0 0.0 0.00 0.60 0.56 98 30.0
20260906032257 75 360 0.0 0.0 0.00 0.60 0.56 98 30.0
20260906031756 76 360 0.0 0.0 0.00 0.60 0.56 97 30.0
20260906031256 76 360 0.0 0.0 0.00 0.60 0.56 97 30.0
20260906030756 76 15 0.0 1.0 0.00 0.60 0.56 97 30.0
20260906030258 76 360 0.0 0.0 0.00 0.60 0.56 97 30.0
20260906025758 76 360 0.0 0.0 0.00 0.60 0.56 97 30.0
20260906025256 76 360 0.0 0.0 0.00 0.60 0.56 96 30.0
20260906024756 76 360 0.0 0.0 0.00 0.60 0.56 96 30.0
20260906024257 76 360 0.0 0.0 0.00 0.60 0.56 97 30.0
20260906023756 76 360 0.0 0.0 0.00 0.60 0.56 97 29.9
20260906023256 76 360 0.0 0.0 0.00 0.60 0.56 97 29.9
20260906022758 76 360 0.0 0.0 0.00 0.60 0.56 96 29.9
20260906022257 76 360 0.0 0.0 0.00 0.60 0.56 96 29.9
20260906021756 77 360 0.0 0.0 0.00 0.60 0.56 96 29.9
20260906021257 77 360 0.0 0.0 0.00 0.60 0.56 95 29.9
20260906020756 76 360 0.0 0.0 0.00 0.60 0.56 95 29.9
20260906020256 76 335 0.0 1.0 0.00 0.60 0.56 96 29.9
20260906015756 76 360 0.0 0.0 0.00 0.60 0.56 96 29.9
20260906015256 76 1 0.0 1.0 0.00 0.60 0.56 97 29.9
20260906014756 76 359 1.0 1.0 0.00 0.60 0.56 97 29.9
20260906014257 76 360 0.0 0.0 0.00 0.60 0.56 97 29.9
20260906013756 76 360 0.0 0.0 0.00 0.60 0.56 97 29.9
20260906013257 76 349 0.0 1.0 0.00 0.60 0.56 97 29.9
20260906012757 76 360 0.0 0.0 0.00 0.60 0.56 97 29.9
20260906012256 77 360 0.0 0.0 0.00 0.60 0.56 97 29.9
20260906011756 77 360 0.0 0.0 0.00 0.60 0.56 97 29.9
20260906011256 77 348 0.0 0.0 0.00 0.60 0.56 96 29.9
20260906010756 76 360 0.0 0.0 0.00 0.60 0.56 96 29.9
20260906010256 76 300 0.0 2.0 0.00 0.60 0.56 96 29.9
20260906005757 76 360 0.0 0.0 0.00 0.60 0.56 96 29.9
20260906005257 76 360 0.0 0.0 0.00 0.60 0.56 96 29.9
20260906004756 77 356 0.0 1.0 0.00 0.60 0.56 96 29.9
20260906004256 77 360 0.0 0.0 0.00 0.60 0.56 95 29.9
20260906003758 77 360 0.0 0.0 0.00 0.60 0.56 96 29.9
20260906003256 77 360 0.0 0.0 0.00 0.60 0.56 95 29.9
20260906002758 77 360 0.0 0.0 0.00 0.60 0.56 95 29.9
20260906002257 77 360 0.0 0.0 0.00 0.60 0.56 94 29.9
20260906001756 77 24 0.0 1.0 0.00 0.60 0.56 95 29.9
20260906001256 77 360 0.0 0.0 0.00 0.60 0.56 95 29.9
20260906000756 77 360 0.0 0.0 0.00 0.60 0.56 94 29.9
20260906000256 78 360 0.0 0.0 0.00 0.60 0.56 94 29.9
20260905235756 78 144 1.0 2.0 0.00 0.60 0.56 93 29.9
20260905235256 78 137 0.0 1.0 0.00 0.60 0.56 92 29.9
20260905234756 78 360 0.0 0.0 0.00 0.60 0.56 92 29.9
20260905234256 79 92 0.0 0.0 0.00 0.60 0.56 92 29.9
20260905233757 79 360 0.0 0.0 0.00 0.60 0.56 91 29.9
20260905233257 80 275 0.0 1.0 0.00 0.60 0.56 90 29.9
20260905232757 82 346 0.0 1.0 0.00 0.60 0.56 85 29.9
20260905232257 83 360 0.0 0.0 0.00 0.60 0.56 83 29.9
20260905231757 83 360 0.0 0.0 0.00 0.60 0.56 82 29.9
20260905231256 84 360 0.0 0.0 0.00 0.60 0.56 82 29.9
20260905230756 84 360 0.0 0.0 0.00 0.60 0.56 82 29.9
20260905230256 83 360 0.0 0.0 0.00 0.60 0.56 81 29.9
20260905225757 83 360 0.0 0.0 0.00 0.60 0.59 82 29.9
20260905225256 82 360 0.0 0.0 0.00 0.60 0.59 83 29.9
20260905224756 82 360 0.0 0.0 0.00 0.60 0.59 82 29.9
20260905224257 81 360 0.0 0.0 0.03 0.60 0.59 84 29.9
20260905223756 80 360 0.0 0.0 0.03 0.60 0.59 89 29.9
20260905223256 78 360 0.0 0.0 0.13 0.60 0.59 92 29.9
20260905222756 76 171 0.0 0.0 0.28 0.60 0.59 93 29.9
20260905222256 75 307 2.0 3.0 0.28 0.55 0.53 94 29.9
20260905221757 74 360 0.0 0.0 0.28 0.55 0.53 95 29.9
20260905221256 74 360 0.0 0.0 0.28 0.55 0.53 95 29.9
20260905220757 74 360 0.0 0.0 0.35 0.55 0.53 95 29.9
20260905220256 74 353 0.0 2.0 0.43 0.55 0.53 95 29.9
20260905215756 74 14 0.0 0.0 0.51 0.53 0.51 94 29.9
20260905215257 74 360 0.0 0.0 0.51 0.53 0.51 93 29.9
20260905214756 73 2 1.0 2.0 0.53 0.53 0.53 93 29.9
20260905214256 73 360 0.0 0.0 0.52 0.52 0.52 93 29.9
20260905213757 74 360 0.0 0.0 0.50 0.51 0.51 91 29.9
20260905213256 75 144 2.0 3.0 0.48 0.49 0.49 88 29.9
20260905212756 75 8 2.0 4.0 0.44 0.42 0.42 86 29.9
20260905212257 76 310 2.0 4.0 0.41 0.41 0.41 87 30.0
20260905211758 77 308 4.0 6.0 0.35 0.36 0.36 81 30.0
20260905211256 77 220 1.0 3.0 0.28 0.30 0.30 88 30.0
20260905210757 80 105 1.0 2.0 0.20 0.19 0.19 83 30.0
20260905210257 86 84 2.0 5.0 0.11 0.13 0.13 75 30.0
20260905205757 95 133 2.0 4.0 0.01 0.01 0.01 58 29.9
20260905205301 99 127 1.0 3.0 0.00 0.00 0.00 47 29.9
20260905204757 100 225 0.0 1.0 0.00 0.00 0.00 46 29.9
20260905204257 101 158 0.0 2.0 0.00 0.00 0.00 45 29.9
20260905203756 102 180 1.0 2.0 0.00 0.00 0.00 46 29.9
20260905203257 101 360 0.0 0.0 0.00 0.00 0.00 43 29.9
20260905202803 100 226 1.0 2.0 0.00 0.00 0.00 46 29.9
20260905202256 99 360 0.0 0.0 0.00 0.00 0.00 47 29.9
20260905201757 99 155 2.0 3.0 0.00 0.00 0.00 47 29.9
20260905201256 100 166 0.0 0.0 0.00 0.00 0.00 46 29.9
20260905200756 100 188 2.0 3.0 0.00 0.00 0.00 48 29.9
20260905200258 100 203 2.0 4.0 0.00 0.00 0.00 45 29.9
20260905195802 100 243 1.0 2.0 0.00 0.00 0.00 48 29.9
20260905195257 99 197 2.0 2.0 0.00 0.00 0.00 50 29.9
20260905194757 99 210 1.0 3.0 0.00 0.00 0.00 47 29.9
20260905194257 99 207 1.0 3.0 0.00 0.00 0.00 51 29.9
20260905193757 100 194 2.0 4.0 0.00 0.00 0.00 49 29.9
20260905193257 100 228 1.0 3.0 0.00 0.00 0.00 49 29.9
20260905192756 101 240 2.0 3.0 0.00 0.00 0.00 46 29.9
20260905192257 100 185 1.0 3.0 0.00 0.00 0.00 47 29.9
20260905191757 99 218 0.0 1.0 0.00 0.00 0.00 49 29.9
20260905191257 98 261 2.0 3.0 0.00 0.00 0.00 49 29.9
20260905190759 98 192 2.0 4.0 0.00 0.00 0.00 49 29.9
20260905190256 98 186 2.0 4.0 0.00 0.00 0.00 52 29.9
20260905185757 98 117 0.0 2.0 0.00 0.00 0.00 51 29.9
20260905185257 98 222 1.0 2.0 0.00 0.00 0.00 50 29.9
20260905184756 98 196 2.0 3.0 0.00 0.00 0.00 53 29.9
20260905184256 98 165 3.0 4.0 0.00 0.00 0.00 51 29.9
20260905183757 98 246 2.0 4.0 0.00 0.00 0.00 51 29.9
20260905183256 98 210 2.0 3.0 0.00 0.00 0.00 52 29.9
20260905182756 98 289 1.0 2.0 0.00 0.00 0.00 53 30.0
20260905182257 98 199 1.0 2.0 0.00 0.00 0.00 53 30.0
20260905181756 97 241 2.0 4.0 0.00 0.00 0.00 54 30.0
20260905181256 96 199 0.0 2.0 0.00 0.00 0.00 55 30.0
20260905180758 96 174 0.0 2.0 0.00 0.00 0.00 57 30.0
20260905180256 96 184 2.0 4.0 0.00 0.00 0.00 54 30.0
20260905175756 95 156 2.0 4.0 0.00 0.00 0.00 56 30.0
20260905175257 95 173 3.0 4.0 0.00 0.00 0.00 56 30.0
20260905174757 95 153 1.0 3.0 0.00 0.00 0.00 56 30.0
20260905174258 95 178 3.0 5.0 0.00 0.00 0.00 57 30.0
20260905173756 94 154 1.0 3.0 0.00 0.00 0.00 60 30.0
20260905173257 94 153 1.0 3.0 0.00 0.00 0.00 62 30.0
20260905172756 93 151 1.0 2.0 0.00 0.00 0.00 62 30.0
20260905172257 93 151 1.0 3.0 0.00 0.00 0.00 62 30.0
20260905171756 92 166 3.0 4.0 0.00 0.00 0.00 61 30.0
20260905171257 92 162 3.0 4.0 0.00 0.00 0.00 60 30.0
20260905170756 92 205 0.0 2.0 0.00 0.00 0.00 62 30.0
20260905170257 91 140 0.0 2.0 0.00 0.00 0.00 64 30.0
20260905165758 91 149 1.0 4.0 0.00 0.00 0.00 65 30.0
20260905165257 91 152 2.0 4.0 0.00 0.00 0.00 65 30.0
20260905164758 91 195 2.0 3.0 0.00 0.00 0.00 66 30.0
20260905164257 90 123 0.0 1.0 0.00 0.00 0.00 66 30.0
20260905163757 90 152 0.0 2.0 0.00 0.00 0.00 68 30.0
20260905163256 90 146 0.0 2.0 0.00 0.00 0.00 69 30.0
20260905162757 89 167 1.0 4.0 0.00 0.00 0.00 69 30.0
20260905162257 89 185 0.0 0.0 0.00 0.00 0.00 71 30.0
20260905161757 88 273 1.0 3.0 0.00 0.00 0.00 71 30.0
20260905161257 88 232 1.0 3.0 0.00 0.00 0.00 71 30.0
20260905160757 88 222 0.0 2.0 0.00 0.00 0.00 71 30.0
20260905160256 88 191 1.0 2.0 0.00 0.00 0.00 72 30.0
20260905155756 87 219 1.0 2.0 0.00 0.00 0.00 74 30.0
20260905155256 87 175 0.0 2.0 0.00 0.00 0.00 72 30.0
20260905154756 86 167 1.0 3.0 0.00 0.00 0.00 75 30.0
20260905154257 86 122 0.0 1.0 0.00 0.00 0.00 76 30.0
20260905153756 85 227 1.0 2.0 0.00 0.00 0.00 75 30.0
20260905153256 85 194 1.0 2.0 0.00 0.00 0.00 76 30.0
20260905152756 85 156 1.0 2.0 0.00 0.00 0.00 77 30.0
20260905152257 84 180 2.0 3.0 0.00 0.00 0.00 76 30.0
20260905151756 84 178 0.0 0.0 0.00 0.00 0.00 77 30.0
20260905151257 84 196 0.0 2.0 0.00 0.00 0.00 78 30.0
20260905150758 84 182 1.0 3.0 0.00 0.00 0.00 78 30.0
20260905150257 84 148 0.0 1.0 0.00 0.00 0.00 78 30.0
20260905145756 84 152 0.0 2.0 0.00 0.00 0.00 81 30.0
20260905145256 83 204 1.0 2.0 0.00 0.00 0.00 79 30.0
20260905144757 83 220 0.0 2.0 0.00 0.00 0.00 81 30.0
20260905144257 82 210 0.0 3.0 0.00 0.00 0.00 80 30.0
20260905143759 82 316 1.0 2.0 0.00 0.00 0.00 79 30.0
20260905143257 82 267 1.0 2.0 0.00 0.00 0.00 80 30.0
20260905142759 82 267 1.0 2.0 0.00 0.00 0.00 81 30.0
20260905142257 81 182 1.0 2.0 0.00 0.00 0.00 83 30.0
20260905141757 81 360 0.0 0.0 0.00 0.00 0.00 83 30.0
20260905141257 80 269 0.0 0.0 0.00 0.00 0.00 84 30.0
20260905140757 80 288 1.0 2.0 0.00 0.00 0.00 84 30.0
20260905140257 80 226 0.0 1.0 0.00 0.00 0.00 84 30.0
20260905135757 80 202 0.0 1.0 0.00 0.00 0.00 85 30.0
20260905135256 79 196 1.0 2.0 0.00 0.00 0.00 86 30.0
20260905134756 79 300 0.0 2.0 0.00 0.00 0.00 86 30.0
20260905134257 79 282 1.0 2.0 0.00 0.00 0.00 87 30.0
20260905133756 79 360 0.0 0.0 0.00 0.00 0.00 87 30.0
20260905133257 79 169 1.0 2.0 0.00 0.00 0.00 88 30.0
20260905132756 78 208 0.0 2.0 0.00 0.00 0.00 89 30.0
20260905132256 78 179 0.0 0.0 0.00 0.00 0.00 91 30.0
20260905131757 78 353 0.0 2.0 0.00 0.00 0.00 90 30.0
20260905131256 77 220 0.0 1.0 0.00 0.00 0.00 92 30.0
20260905130757 77 231 0.0 1.0 0.00 0.00 0.00 93 30.0
20260905130257 77 360 0.0 0.0 0.00 0.00 0.00 93 30.0
20260905125756 77 200 0.0 1.0 0.00 0.00 0.00 94 30.0
20260905125257 76 306 0.0 0.0 0.00 0.00 0.00 95 30.0